Home > Weather > Fall River > Past weeks

Flag for USA Past Weather in Fall River, Massachusetts, USA — Yesterday and Last 2 Weeks

Now
84 °F

Sunny.


Feels Like: 85 °F
Forecast: 70 / 90 °F
Wind: 13 mph from Southwest

Location: New Bedford Regional Airport

Current Time: Jul 27, 2016 at 7:04:47 PM

Latest Report: Jul 27, 2016 at 5:53 PM


Visibility: 10 mi

Pressure: 29.87 "Hg

Humidity: 48%

Dew Point: 62 °F

Location of Fall RiverLocation

Past Weather in Fall River — Graph

°F

Fall River Temperature Yesterday

Maximum temperature yesterday: 93 °F (at 2:53 PM)
Minimum temperature yesterday: 70 °F (at 5:53 AM)
Average temperature yesterday: 82 °F

High & Low Weather Summary for the Past Weeks

 TemperatureHumidityPressure
High94 °F (Jul 15, 12:53 PM)100% (Jul 16, 6:01 AM)30.20 "Hg (Jul 16, 6:01 AM)
Low0 °F (Jul 16, 6:01 AM)27% (Jul 20, 2:53 PM)29.71 "Hg (Jul 23, 5:53 PM)
Average76 °F69%29.93 "Hg
* Reported Jul 12 5:53 PM — Jul 27 5:53 PM, Fall River, Weather by CustomWeather, © 2016

Note: Actual official high and low records may vary slightly from our data, if they occured in-between our weather recording intervals... More about our weather records

Advertising

Fall River Weather History for the Previous 24 Hours

Scroll right to see more
 ConditionsComfort  
Time TempWeatherWind HumidityBarometerVisibility
5:53 PM
Wed, Jul 27
84 °FSunny.13 mph48%29.87 "Hg10 mi
4:53 PM87 °FSunny.13 mph45%29.87 "Hg10 mi
3:53 PM89 °FPassing clouds.15 mph41%29.88 "Hg10 mi
2:53 PM88 °FScattered clouds.8 mph46%29.88 "Hg10 mi
1:53 PM87 °FPartly sunny.10 mph46%29.89 "Hg10 mi
12:53 PM91 °FPartly sunny.12 mph37%29.90 "Hg10 mi
11:53 AM87 °FPassing clouds.9 mph42%29.90 "Hg10 mi
10:53 AM87 °FSunny.3 mph42%29.91 "Hg10 mi
9:53 AM83 °FSunny.5 mph48%29.92 "Hg10 mi
8:53 AM81 °FSunny.3 mph53%29.92 "Hg10 mi
7:53 AM78 °FSunny.5 mph60%29.92 "Hg10 mi
6:53 AM73 °FSunny.3 mph69%29.91 "Hg10 mi
5:53 AM64 °FClear.N/A87%29.91 "Hg10 mi
4:53 AM64 °FClear.No wind87%29.89 "Hg10 mi
3:53 AM66 °FClear.No wind87%29.88 "Hg10 mi
2:53 AM67 °FClear.No wind85%29.88 "Hg10 mi
1:53 AM72 °FClear.No wind71%29.88 "Hg10 mi
12:53 AM75 °FClear.No wind62%29.88 "Hg10 mi
11:53 PM
Tue, Jul 26
77 °FClear.3 mph58%29.88 "Hg10 mi
10:53 PM79 °FPassing clouds.No wind54%29.86 "Hg10 mi
9:53 PM75 °FClear.No wind74%29.85 "Hg10 mi
8:53 PM80 °FOvercast.3 mph60%29.82 "Hg10 mi
7:53 PM85 °FSunny.No wind48%29.79 "Hg10 mi
Weather by CustomWeather, © 2016

See weather overviewHow to use our weather pages